Terminal Aerodrome Forecast
Issued by NWS St Louis, MO

Home | Current Version | Previous Version | Text Only | Print | Product List | Glossary On
Versions: 1 2 3 4 5 6 7 8 9 10 11 12 13
000
FTUS43 KLSX 092337
TAFCOU
TAF
KCOU 092337Z 1000/1024 VRB04KT P6SM BKN080
     FM101400 14008KT P6SM OVC050=

USA.gov is the U.S. government's official web portal to all federal, state and local government web resources and services.